Valle del Fuerte International Airport

Jump to: basic info | weather | frequencies | runways | comments

Related pages: nearby airports | nearby navaids | notams | map

Basic information (top)

Codes: LMM MMLM
Location: lon 25.685200, lat -109.081001, elev 16 ft / 5 m msl
Status: medium_airport
Scheduled airline service: yes
Links: Wikipedia Mobile

Weather (top)

Current conditions (rec'd 2014/10/22 22:48Z):

MMLM 222248Z 23007KT 12SM SKC 30/20 A2980

Airport forecast (rec'd 2014/10/22 06:18Z):

TAF MMLM 220515Z 2206/2306 00000KT P6SM SKC 
      BECMG 2217/2218 28010KT 
     FM230100 30005KT P6SM SKC

Frequencies (top)

Verify before use: may be inaccurate or out of date.

TWR: 118.8 MHz (MOCHIS TWR)

Runways (top)

09/27: 6,562 x 148 ft (2,000 x 45 m) — paved — lighted

Latest comments (top)

No comments yet for Valle del Fuerte International Airport

More... (top)

See also NOTAMs and nearby airports and navaids, or visit the Valle del Fuerte International Airport page at the main OurAirports website..